Theta_e
291 291 291 291 291 290 290 290 290 289 288 288 287 287 286 286 285 285 284 283 282 282 282 282 283 283 281 280 283 284 283 282 279 281 282 283 282 282 283 285 286 287 288
290 289 289 289 289 289 289 289 288 288 288 288 287 287 286 286 285 284 283 283 281 281 282 282 281 282 279 280 282 283 283 283 281 278 281 282 283 284 284 285 288 289 289
287 288 287 288 288 288 289 288 288 288 287 287 287 286 285 285 284 283 282 282 282 282 282 281 280 279 278 279 280 281 283 283 283 281 280 283 284 285 284 287 288 289 290
287 287 287 288 288 288 288 288 287 287 286 286 286 286 285 285 284 283 282 281 282 282 282 281 280 278 277 278 280 280 283 284 284 282 282 283 284 284 285 284 284 287 287
286 286 288 287 287 287 287 287 287 286 286 286 285 284 284 284 283 282 281 281 282 281 281 281 280 279 280 280 281 281 283 283 283 283 282 283 281 280 280 282 282 285 285
286 287 287 286 286 287 287 286 286 286 285 285 284 284 283 284 286 287 283 281 282 281 277 277 278 277 278 281 282 284 285 284 283 283 283 280 279 279 280 280 281 279 277
285 286 286 286 286 286 286 285 285 285 284 284 283 283 282 281 287 287 288 281 279 276 275 275 274 278 277 277 280 284 285 285 288 284 280 280 279 279 279 278 280 279 277
284 284 285 285 286 286 285 285 285 285 284 283 282 282 280 279 287 288 287 277 275 273 270 270 270 270 273 277 281 279 282 283 283 282 281 280 280 280 280 278 279 278 279
282 283 283 284 285 285 285 285 285 284 283 281 283 280 280 276 285 287 286 276 275 274 269 268 270 270 276 282 281 277 281 278 280 281 280 280 280 280 279 273 271 270 271
280 281 284 283 285 285 286 285 285 285 284 283 280 281 280 278 284 286 286 277 275 272 266 267 275 272 280 283 279 279 278 278 277 270 268 270 271 271 276 271 272 269 269
279 280 281 283 285 286 285 285 283 284 283 282 281 278 278 278 277 286 287 277 278 272 270 267 267 279 282 283 282 277 277 281 275 270 264 266 266 268 270 270 269 270 266
277 279 280 281 283 283 284 283 282 282 281 281 279 276 277 276 278 284 287 286 281 276 273 269 267 279 282 281 278 281 281 279 274 267 262 262 263 265 266 268 267 268 270
274 278 279 279 281 281 283 281 282 282 282 280 280 280 280 278 276 283 285 287 286 274 272 273 279 280 279 273 277 278 267 264 264 261 261 261 263 265 264 263 265 265 269
271 274 279 279 279 278 280 281 282 282 282 282 281 281 281 278 278 278 281 284 285 283 279 273 274 274 276 272 267 269 265 263 264 262 262 261 262 263 264 264 264 262 266
270 272 277 280 279 279 279 280 282 283 285 284 284 283 280 279 280 282 281 280 280 279 270 270 268 267 266 265 264 264 263 264 265 263 262 262 263 263 265 266 268 268 266
268 270 272 276 279 279 279 281 285 286 286 287 287 284 282 284 286 285 284 284 283 282 269 267 267 267 267 266 265 264 264 264 264 263 261 262 262 264 266 265 266 267 268
266 269 271 274 279 279 278 279 280 281 286 287 287 286 286 284 286 286 286 286 284 282 271 266 268 269 268 267 267 266 266 265 264 264 263 263 264 266 263 266 265 266 268
263 266 270 272 273 277 280 279 279 279 279 281 286 286 286 286 286 286 286 286 281 281 271 268 270 268 267 267 266 265 264 263 263 264 264 262 261 264 262 262 266 266 267
262 264 268 268 271 273 276 280 280 278 280 280 275 285 285 287 287 286 287 282 280 280 276 271 269 268 267 266 265 264 263 264 262 261 261 262 260 263 263 264 266 265 268
261 263 264 265 267 270 274 278 280 280 280 280 280 282 284 284 284 284 284 282 280 280 279 275 270 269 267 266 264 263 261 261 260 260 261 263 262 264 263 267 266 264 264
260 260 262 264 266 268 272 275 278 281 281 281 282 283 285 283 283 284 283 283 280 278 274 274 270 270 269 266 264 263 263 264 262 262 263 263 262 261 262 265 265 264 264
257 258 260 262 265 266 269 271 273 277 280 281 282 282 286 284 284 284 284 283 283 280 278 274 271 270 271 269 267 265 264 265 262 263 264 263 262 262 260 261 262 262 262
258 259 260 261 263 266 267 269 271 274 278 280 281 281 281 283 283 283 284 284 284 280 275 274 272 269 270 270 269 268 267 267 266 266 264 263 263 262 262 262 261 261 261
256 256 258 260 262 264 267 268 270 272 276 279 280 280 281 281 282 283 283 283 280 278 273 273 272 271 269 269 269 268 268 267 266 266 266 265 263 261 260 261 261 259 259
255 256 258 260 261 262 263 264 267 270 271 277 279 280 281 282 282 282 283 282 278 277 273 274 273 270 268 269 269 267 266 268 266 266 266 265 263 262 261 260 260 259 258
254 256 257 258 259 261 262 264 265 268 269 272 276 280 281 282 281 281 283 282 279 278 277 274 273 271 269 270 269 268 268 267 265 266 266 265 263 261 261 259 258 259 258
Wind_Speed
12 11 11 11 11 10 11 11 11 9 10 10 10 9 8 8 7 6 6 5 5 5 5 5 6 4 4 4 5 6 6 7 11 17 12 13 17 17 17 15 14 15 14
10 10 10 10 11 12 11 11 10 12 10 11 10 9 8 8 7 7 7 5 6 6 6 5 5 4 5 5 5 8 7 8 9 16 15 14 16 15 16 18 14 12 13
7 9 8 9 11 11 11 11 11 10 10 9 9 10 9 9 8 7 6 6 6 6 5 5 5 5 5 5 6 6 6 7 8 9 15 12 13 12 15 13 12 11 9
7 8 10 12 13 12 11 11 11 11 11 10 10 9 9 8 8 7 6 6 6 6 5 5 5 5 6 7 9 8 7 7 9 9 11 13 10 11 10 13 16 10 11
6 7 11 8 8 8 9 10 10 11 10 10 9 7 8 7 6 7 7 7 6 5 5 4 4 5 11 11 8 9 7 8 8 8 11 11 10 10 11 10 12 12 8
7 10 6 7 8 10 10 11 11 11 10 10 10 10 9 7 14 16 11 6 6 5 5 4 4 6 8 12 15 15 11 10 12 9 9 10 12 10 9 10 10 9 6
7 8 7 9 11 11 10 10 12 13 11 12 11 10 10 9 17 17 15 5 5 6 5 3 3 5 6 7 12 13 11 15 17 8 10 11 13 11 12 12 10 6 3
7 7 7 7 9 9 11 13 12 11 14 12 11 11 9 8 17 17 13 5 5 6 5 4 4 5 7 9 8 6 5 5 4 5 8 10 10 10 9 10 10 7 4
10 8 6 7 8 10 13 15 13 12 11 11 10 12 12 8 18 17 13 6 5 6 5 4 5 5 11 14 6 6 5 4 6 11 12 11 13 15 14 6 7 5 3
15 14 12 6 9 11 13 12 10 11 11 10 9 11 12 9 17 18 14 5 5 4 3 3 9 7 12 11 5 5 4 3 4 5 5 6 7 8 15 7 6 3 2
18 16 13 10 11 12 9 8 9 10 9 10 10 8 9 9 10 18 18 6 6 4 4 3 3 9 10 9 9 3 4 3 4 3 3 3 4 4 6 6 7 5 4
17 15 14 9 6 4 9 7 9 10 10 10 8 5 5 5 10 16 18 17 12 6 5 4 4 8 8 7 6 8 9 6 3 2 2 3 3 3 4 5 5 5 5
16 16 14 12 4 3 6 7 7 9 9 9 8 7 7 6 5 17 17 17 15 5 3 6 7 4 3 3 6 6 4 2 3 2 2 3 2 3 3 3 4 4 6
15 16 13 11 6 3 1 4 6 7 7 8 8 8 6 6 7 7 8 9 12 9 8 3 3 3 2 1 1 3 1 2 4 1 2 3 2 3 3 2 2 3 5
14 13 13 9 7 4 2 3 5 6 9 10 10 8 9 7 11 15 13 9 8 8 6 2 2 1 1 1 0 1 2 2 4 0 1 2 3 3 3 2 4 5 6
14 10 9 10 8 5 3 4 7 6 10 8 9 9 5 5 11 20 22 20 19 19 3 3 3 3 3 3 3 1 1 1 2 3 1 1 2 3 3 3 3 5 5
13 14 10 9 9 7 4 4 6 5 9 13 12 15 14 9 11 16 20 22 21 20 3 4 4 5 4 4 4 3 3 2 2 4 3 2 2 3 3 3 3 2 4
12 15 12 9 8 9 7 5 6 6 5 6 13 14 15 13 12 14 16 17 11 12 4 5 6 5 5 5 4 4 2 2 2 2 4 4 2 3 3 3 3 3 4
11 8 9 11 8 8 9 8 6 6 6 4 2 10 12 16 15 13 19 9 10 10 8 6 5 5 5 5 4 4 5 3 2 3 3 5 3 3 4 3 3 4 5
9 10 12 10 10 6 6 8 7 7 6 6 6 7 6 8 8 9 10 11 9 8 8 8 7 6 6 7 5 4 4 4 3 2 3 5 4 4 4 6 4 4 4
8 9 12 10 10 8 7 7 8 8 7 7 8 7 14 8 9 10 10 11 10 8 7 7 7 7 7 7 6 6 5 5 5 4 4 4 6 5 4 5 6 6 6
8 9 8 8 9 9 7 6 8 11 9 8 6 6 18 9 9 10 10 10 10 9 7 8 7 7 9 10 10 8 7 7 6 6 5 6 6 6 4 5 6 6 6
9 9 9 9 9 11 8 9 7 10 11 8 7 6 8 10 10 10 9 9 9 8 6 7 7 6 6 8 9 10 10 10 9 9 9 8 8 7 7 7 7 7 6
9 10 10 10 9 9 8 8 7 10 14 10 8 7 9 9 10 11 9 8 6 7 7 7 8 11 9 9 8 8 6 6 8 9 12 10 9 9 6 7 7 7 8
9 10 10 10 8 7 8 10 9 9 9 11 8 7 10 9 10 9 8 8 8 8 8 8 7 10 13 15 13 13 12 14 11 12 8 10 11 13 9 8 9 8 8
10 11 10 8 9 10 9 9 10 8 8 9 11 9 11 9 9 8 8 9 9 9 10 8 9 14 15 14 14 15 15 16 13 15 10 10 11 9 9 9 11 9 10
Wind_Direction
176 175 168 172 171 167 179 180 179 167 168 172 174 178 180 183 184 182 190 189 202 210 235 231 244 255 253 246 250 248 254 256 273 288 294 300 299 298 300 299 297 296 290
174 169 173 166 172 182 185 179 170 176 177 174 173 177 181 183 182 187 191 187 199 219 235 246 255 269 259 249 249 251 258 265 274 285 295 297 296 303 294 298 306 303 299
156 163 165 173 180 189 188 180 176 170 173 172 172 182 183 184 184 192 189 194 204 219 228 237 248 244 261 259 258 256 258 268 266 278 289 294 301 306 307 306 309 307 304
176 178 186 190 191 189 183 178 175 174 170 177 186 183 179 180 186 184 185 198 212 222 215 237 243 239 244 263 272 266 275 275 279 277 285 297 303 313 308 321 323 318 317
194 196 211 193 181 170 176 178 174 176 180 179 174 176 177 179 187 185 187 200 207 220 223 238 244 249 266 266 267 280 286 289 288 287 298 301 310 322 327 325 314 313 320
204 221 201 178 178 189 184 182 179 180 174 171 181 182 181 190 195 201 193 193 203 213 223 227 251 264 265 282 277 278 284 293 295 294 299 300 306 316 320 320 318 332 332
227 236 215 193 192 192 178 175 190 187 174 184 184 178 189 188 198 203 204 178 197 214 225 211 247 268 282 269 275 285 289 299 293 323 304 303 311 327 315 321 318 311 282
267 253 230 202 208 187 178 190 193 183 184 184 184 185 182 198 200 203 202 180 200 218 217 211 229 257 268 269 267 270 277 311 325 314 305 310 313 325 321 316 311 304 275
336 291 254 220 208 192 195 197 191 182 185 184 180 180 188 194 200 201 197 177 204 228 215 210 228 253 273 281 294 283 302 321 327 330 335 340 350 352 355 330 356 335 313
340 322 301 230 219 212 212 201 189 193 192 178 181 187 188 188 198 199 196 167 203 220 252 242 249 231 265 289 281 280 307 327 334 345 343 345 354 3 13 7 340 326 323
330 320 310 266 227 219 210 190 181 181 169 180 184 181 185 188 191 199 201 177 199 188 214 247 239 252 271 291 290 272 272 351 3 359 314 311 334 6 10 360 3 1 351
329 326 321 299 262 218 194 183 176 174 174 174 173 168 190 181 189 205 206 204 197 187 204 203 222 254 278 302 294 309 328 353 55 3 352 336 352 359 351 355 345 356 17
330 330 327 316 277 222 189 178 178 180 179 176 178 187 192 187 192 208 213 215 204 191 177 210 215 245 280 315 300 336 29 51 81 44 342 304 283 289 318 356 329 332 19
329 328 332 332 314 303 275 182 182 186 186 176 179 192 189 168 187 192 200 205 210 189 191 183 176 173 241 195 24 354 3 108 109 188 249 267 317 4 13 335 2 332 25
324 324 329 332 318 290 254 207 212 210 203 190 195 187 174 189 210 196 185 184 185 173 122 116 128 164 211 268 246 354 341 62 102 233 352 332 26 8 11 338 36 44 58
318 322 322 321 323 299 268 274 253 232 214 226 186 171 186 202 188 193 196 194 183 163 114 166 193 189 200 207 199 179 277 138 141 125 85 328 70 26 3 360 50 65 63
313 312 312 313 317 321 299 258 269 246 225 219 201 193 185 190 199 199 200 193 179 165 177 169 189 185 197 205 193 176 196 199 168 126 121 82 88 67 31 14 11 49 49
302 305 299 314 315 322 307 271 253 244 216 203 225 216 208 197 202 208 202 184 178 194 172 173 195 187 179 191 187 188 174 204 128 157 126 116 104 116 82 51 50 28 68
299 304 310 300 298 303 303 278 252 251 236 203 160 212 210 213 205 210 204 194 192 200 192 190 182 178 175 182 184 184 158 182 163 154 151 128 136 125 111 87 69 72 79
288 294 289 287 293 299 286 291 260 243 242 236 212 188 173 175 199 203 199 203 216 199 190 193 183 181 171 172 169 185 164 152 154 166 168 134 137 137 131 126 102 82 73
292 293 288 290 283 296 297 305 301 267 237 229 223 201 181 179 203 210 202 207 204 217 196 193 179 181 172 164 156 181 176 179 156 168 166 147 136 133 129 111 114 113 116
275 276 274 275 283 287 282 282 288 288 261 239 231 209 200 201 208 212 203 207 208 203 196 185 181 186 182 175 170 174 183 183 168 163 168 150 135 131 130 126 123 124 124
264 267 274 274 272 273 273 268 271 280 272 256 232 214 210 206 212 211 205 203 200 189 166 178 172 175 183 170 176 171 178 189 180 162 160 157 145 145 145 142 141 134 135
267 265 263 262 264 265 267 263 259 263 271 258 240 221 222 223 207 208 204 196 178 179 167 188 181 178 183 177 170 174 171 153 155 164 156 156 148 138 135 138 145 135 131
258 259 258 258 264 275 279 277 270 271 276 282 246 240 236 217 215 195 202 191 181 183 181 186 185 179 182 176 173 176 162 160 157 154 152 146 149 147 145 143 145 136 131
255 257 259 263 264 263 259 262 270 270 272 280 296 242 236 222 209 198 204 190 188 188 182 187 189 182 178 174 170 166 159 158 154 153 150 144 145 145 141 139 144 144 145